Year,Month,Day,Hour,Minute,Value (Times are PST for temperature in C)
2018,07,13,00,00,19.20
2018,07,13,00,01,19.20
2018,07,13,00,02,19.20
2018,07,13,00,03,19.20
2018,07,13,00,04,19.20
2018,07,13,00,05,19.20
2018,07,13,00,06,19.20
2018,07,13,00,07,19.20
2018,07,13,00,08,19.20
2018,07,13,00,09,19.10
2018,07,13,00,10,19.10
2018,07,13,00,11,19.00
2018,07,13,00,12,19.00
2018,07,13,00,13,18.90
2018,07,13,00,14,18.90
2018,07,13,00,15,18.90
2018,07,13,00,16,18.80
2018,07,13,00,17,18.80
2018,07,13,00,18,18.70
2018,07,13,00,19,18.70
2018,07,13,00,20,18.60
2018,07,13,00,21,18.50
2018,07,13,00,22,18.40
2018,07,13,00,23,18.30
2018,07,13,00,24,18.20
2018,07,13,00,25,18.20
2018,07,13,00,26,18.10
2018,07,13,00,27,18.10
2018,07,13,00,28,18.10
2018,07,13,00,29,18.20
2018,07,13,00,30,18.30
2018,07,13,00,31,18.40
2018,07,13,00,32,18.50
2018,07,13,00,33,18.60
2018,07,13,00,34,18.80
2018,07,13,00,35,18.90
2018,07,13,00,36,19.00
2018,07,13,00,37,19.10
2018,07,13,00,38,19.10
2018,07,13,00,39,19.20
2018,07,13,00,40,19.20
2018,07,13,00,41,19.30
2018,07,13,00,42,19.30
2018,07,13,00,43,19.30
2018,07,13,00,44,19.30
2018,07,13,00,45,19.30
2018,07,13,00,46,19.20
2018,07,13,00,47,19.20
2018,07,13,00,48,19.20
2018,07,13,00,49,19.20
2018,07,13,00,50,19.20
2018,07,13,00,51,19.20
2018,07,13,00,52,19.10
2018,07,13,00,53,19.10
2018,07,13,00,54,19.10
2018,07,13,00,55,19.10
2018,07,13,00,56,19.00
2018,07,13,00,57,19.00
2018,07,13,00,58,19.00
2018,07,13,00,59,19.00
2018,07,13,01,00,19.10
2018,07,13,01,01,19.10
2018,07,13,01,02,19.10
2018,07,13,01,03,19.20
2018,07,13,01,04,19.30
2018,07,13,01,05,19.30
2018,07,13,01,06,19.40
2018,07,13,01,07,19.50
2018,07,13,01,08,19.50
2018,07,13,01,09,19.60
2018,07,13,01,10,19.60
2018,07,13,01,11,19.60
2018,07,13,01,12,19.70
2018,07,13,01,13,19.70
2018,07,13,01,14,19.70
2018,07,13,01,15,19.70
2018,07,13,01,16,19.70
2018,07,13,01,17,19.80
2018,07,13,01,18,19.80
2018,07,13,01,19,19.80
2018,07,13,01,20,19.80
2018,07,13,01,21,19.80
2018,07,13,01,22,19.80
2018,07,13,01,23,19.80
2018,07,13,01,24,19.80
2018,07,13,01,25,19.80
2018,07,13,01,26,19.80
2018,07,13,01,27,19.90
2018,07,13,01,28,19.90
2018,07,13,01,29,19.90
2018,07,13,01,30,19.90
2018,07,13,01,31,19.90
2018,07,13,01,32,19.90
2018,07,13,01,33,19.90
2018,07,13,01,34,19.90
2018,07,13,01,35,19.90
2018,07,13,01,36,19.90
2018,07,13,01,37,19.90
2018,07,13,01,38,20.00
2018,07,13,01,39,20.00
2018,07,13,01,40,20.00
2018,07,13,01,41,20.00
2018,07,13,01,42,20.00
2018,07,13,01,43,20.00
2018,07,13,01,44,20.00
2018,07,13,01,45,20.00
2018,07,13,01,46,20.00
2018,07,13,01,47,19.90
2018,07,13,01,48,19.90
2018,07,13,01,49,19.90
2018,07,13,01,50,19.90
2018,07,13,01,51,19.90
2018,07,13,01,52,19.80
2018,07,13,01,53,19.80
2018,07,13,01,54,19.80
2018,07,13,01,55,19.80
2018,07,13,01,56,19.70
2018,07,13,01,57,19.70
2018,07,13,01,58,19.70
2018,07,13,01,59,19.70
2018,07,13,02,00,19.60
2018,07,13,02,01,19.60
2018,07,13,02,02,19.60
2018,07,13,02,03,19.50
2018,07,13,02,04,19.50
2018,07,13,02,05,19.40
2018,07,13,02,06,19.40
2018,07,13,02,07,19.30
2018,07,13,02,08,19.30
2018,07,13,02,09,19.30
2018,07,13,02,10,19.30
2018,07,13,02,11,19.20
2018,07,13,02,12,19.20
2018,07,13,02,13,19.20
2018,07,13,02,14,19.20
2018,07,13,02,15,19.10
2018,07,13,02,16,19.10
2018,07,13,02,17,19.10
2018,07,13,02,18,19.10
2018,07,13,02,19,19.10
2018,07,13,02,20,19.00
2018,07,13,02,21,19.00
2018,07,13,02,22,19.00
2018,07,13,02,23,19.00
2018,07,13,02,24,18.90
2018,07,13,02,25,18.90
2018,07,13,02,26,18.90
2018,07,13,02,27,18.90
2018,07,13,02,28,18.90
2018,07,13,02,29,18.90
2018,07,13,02,30,18.90
2018,07,13,02,31,18.90
2018,07,13,02,32,18.90
2018,07,13,02,33,18.80
2018,07,13,02,34,18.80
2018,07,13,02,35,18.80
2018,07,13,02,36,18.80
2018,07,13,02,37,18.70
2018,07,13,02,38,18.70
2018,07,13,02,39,18.70
2018,07,13,02,40,18.80
2018,07,13,02,41,18.80
2018,07,13,02,42,18.70
2018,07,13,02,43,18.70
2018,07,13,02,44,18.70
2018,07,13,02,45,18.70
2018,07,13,02,46,18.70
2018,07,13,02,47,18.70
2018,07,13,02,48,18.70
2018,07,13,02,49,18.70
2018,07,13,02,50,18.70
2018,07,13,02,51,18.70
2018,07,13,02,52,18.70
2018,07,13,02,53,18.70
2018,07,13,02,54,18.70
2018,07,13,02,55,18.60
2018,07,13,02,56,18.60
2018,07,13,02,57,18.60
2018,07,13,02,58,18.60
2018,07,13,02,59,18.50
2018,07,13,03,00,18.50
2018,07,13,03,01,18.50
2018,07,13,03,02,18.50
2018,07,13,03,03,18.40
2018,07,13,03,04,18.40
2018,07,13,03,05,18.40
2018,07,13,03,06,18.30
2018,07,13,03,07,18.30
2018,07,13,03,08,18.20
2018,07,13,03,09,18.20
2018,07,13,03,10,18.10
2018,07,13,03,11,18.00
2018,07,13,03,12,17.90
2018,07,13,03,13,17.90
2018,07,13,03,14,17.80
2018,07,13,03,15,17.70
2018,07,13,03,16,17.60
2018,07,13,03,17,17.60
2018,07,13,03,18,17.50
2018,07,13,03,19,17.50
2018,07,13,03,20,17.40
2018,07,13,03,21,17.30
2018,07,13,03,22,17.40
2018,07,13,03,23,17.40
2018,07,13,03,24,17.50
2018,07,13,03,25,17.50
2018,07,13,03,26,17.60
2018,07,13,03,27,17.60
2018,07,13,03,28,17.70
2018,07,13,03,29,17.70
2018,07,13,03,30,17.80
2018,07,13,03,31,17.80
2018,07,13,03,32,17.80
2018,07,13,03,33,17.90
2018,07,13,03,34,17.90
2018,07,13,03,35,17.90
2018,07,13,03,36,17.90
2018,07,13,03,37,17.90
2018,07,13,03,38,17.90
2018,07,13,03,39,17.90
2018,07,13,03,40,17.90
2018,07,13,03,41,17.90
2018,07,13,03,42,17.90
2018,07,13,03,43,17.90
2018,07,13,03,44,17.90
2018,07,13,03,45,18.00
2018,07,13,03,46,17.90
2018,07,13,03,47,17.90
2018,07,13,03,48,17.90
2018,07,13,03,49,17.90
2018,07,13,03,50,17.80
2018,07,13,03,51,17.80
2018,07,13,03,52,17.70
2018,07,13,03,53,17.70
2018,07,13,03,54,17.60
2018,07,13,03,55,17.50
2018,07,13,03,56,17.50
2018,07,13,03,57,17.40
2018,07,13,03,58,17.40
2018,07,13,03,59,17.40
2018,07,13,04,00,17.40
2018,07,13,04,01,17.40
2018,07,13,04,02,17.50
2018,07,13,04,03,17.50
2018,07,13,04,04,17.50
2018,07,13,04,05,17.60
2018,07,13,04,06,17.60
2018,07,13,04,07,17.60
2018,07,13,04,08,17.70
2018,07,13,04,09,17.70
2018,07,13,04,10,17.70
2018,07,13,04,11,17.80
2018,07,13,04,12,17.80
2018,07,13,04,13,17.80
2018,07,13,04,14,17.80
2018,07,13,04,15,17.80
2018,07,13,04,16,17.80
2018,07,13,04,17,17.90
2018,07,13,04,18,17.90
2018,07,13,04,19,17.90
2018,07,13,04,20,18.00
2018,07,13,04,21,18.00
2018,07,13,04,22,18.10
2018,07,13,04,23,18.10
2018,07,13,04,24,18.10
2018,07,13,04,25,18.10
2018,07,13,04,26,18.10
2018,07,13,04,27,18.20
2018,07,13,04,28,18.20
2018,07,13,04,29,18.20
2018,07,13,04,30,18.20
2018,07,13,04,31,18.20
2018,07,13,04,32,18.20
2018,07,13,04,33,18.20
2018,07,13,04,34,18.10
2018,07,13,04,35,18.10
2018,07,13,04,36,18.00
2018,07,13,04,37,18.00
2018,07,13,04,38,17.90
2018,07,13,04,39,17.80
2018,07,13,04,40,17.80
2018,07,13,04,41,17.70
2018,07,13,04,42,17.60
2018,07,13,04,43,17.50
2018,07,13,04,44,17.40
2018,07,13,04,45,17.30
2018,07,13,04,46,17.30
2018,07,13,04,47,17.20
2018,07,13,04,48,17.10
2018,07,13,04,49,17.00
2018,07,13,04,50,17.00
2018,07,13,04,51,16.90
2018,07,13,04,52,16.90
2018,07,13,04,53,16.80
2018,07,13,04,54,16.80
2018,07,13,04,55,16.80
2018,07,13,04,56,16.80
2018,07,13,04,57,16.80
2018,07,13,04,58,16.80
2018,07,13,04,59,16.80
2018,07,13,05,00,16.80
2018,07,13,05,01,16.70
2018,07,13,05,02,16.70
2018,07,13,05,03,16.70
2018,07,13,05,04,16.70
2018,07,13,05,05,16.70
2018,07,13,05,06,16.70
2018,07,13,05,07,16.70
2018,07,13,05,08,16.60
2018,07,13,05,09,16.70
2018,07,13,05,10,16.70
2018,07,13,05,11,16.70
2018,07,13,05,12,16.70
2018,07,13,05,13,16.70
2018,07,13,05,14,16.70
2018,07,13,05,15,16.70
2018,07,13,05,16,16.70
2018,07,13,05,17,16.70
2018,07,13,05,18,16.60
2018,07,13,05,19,16.50
2018,07,13,05,20,16.50
2018,07,13,05,21,16.40
2018,07,13,05,22,16.30
2018,07,13,05,23,16.30
2018,07,13,05,24,16.20
2018,07,13,05,25,16.10
2018,07,13,05,26,16.10
2018,07,13,05,27,16.00
2018,07,13,05,28,15.90
2018,07,13,05,29,15.90
2018,07,13,05,30,15.80
2018,07,13,05,31,15.80
2018,07,13,05,32,15.80
2018,07,13,05,33,15.80
2018,07,13,05,34,15.80
2018,07,13,05,35,15.80
2018,07,13,05,36,15.80
2018,07,13,05,37,15.80
2018,07,13,05,38,15.70
2018,07,13,05,39,15.70
2018,07,13,05,40,15.70
2018,07,13,05,41,15.70
2018,07,13,05,42,15.70
2018,07,13,05,43,15.60
2018,07,13,05,44,15.60
2018,07,13,05,45,15.60
2018,07,13,05,46,15.60
2018,07,13,05,47,15.60
2018,07,13,05,48,15.70
2018,07,13,05,49,15.70
2018,07,13,05,50,15.80
2018,07,13,05,51,15.80
2018,07,13,05,52,15.80
2018,07,13,05,53,15.80
2018,07,13,05,54,15.70
2018,07,13,05,55,15.70
2018,07,13,05,56,15.70
2018,07,13,05,57,15.60
2018,07,13,05,58,15.60
2018,07,13,05,59,15.60
2018,07,13,06,00,15.60
2018,07,13,06,01,15.60
2018,07,13,06,02,15.60
2018,07,13,06,03,15.70
2018,07,13,06,04,15.80
2018,07,13,06,05,15.80
2018,07,13,06,06,15.90
2018,07,13,06,07,16.00
2018,07,13,06,08,16.20
2018,07,13,06,09,16.30
2018,07,13,06,10,16.30
2018,07,13,06,11,16.30
2018,07,13,06,12,16.30
2018,07,13,06,13,16.30
2018,07,13,06,14,16.30
2018,07,13,06,15,16.20
2018,07,13,06,16,16.20
2018,07,13,06,17,16.20
2018,07,13,06,18,16.20
2018,07,13,06,19,16.30
2018,07,13,06,20,16.30
2018,07,13,06,21,16.30
2018,07,13,06,22,16.30
2018,07,13,06,23,16.40
2018,07,13,06,24,16.40
2018,07,13,06,25,16.40
2018,07,13,06,26,16.50
2018,07,13,06,27,16.50
2018,07,13,06,28,16.50
2018,07,13,06,29,16.60
2018,07,13,06,30,16.60
2018,07,13,06,31,16.70
2018,07,13,06,32,16.70
2018,07,13,06,33,16.80
2018,07,13,06,34,16.90
2018,07,13,06,35,16.90
2018,07,13,06,36,17.00
2018,07,13,06,37,17.10
2018,07,13,06,38,17.10
2018,07,13,06,39,17.20
2018,07,13,06,40,17.30
2018,07,13,06,41,17.30
2018,07,13,06,42,17.30
2018,07,13,06,43,17.40
2018,07,13,06,44,17.40
2018,07,13,06,45,17.40
2018,07,13,06,46,17.40
2018,07,13,06,47,17.40
2018,07,13,06,48,17.40
2018,07,13,06,49,17.30
2018,07,13,06,50,17.30
2018,07,13,06,51,17.30
2018,07,13,06,52,17.30
2018,07,13,06,53,17.30
2018,07,13,06,54,17.30
2018,07,13,06,55,17.30
2018,07,13,06,56,17.30
2018,07,13,06,57,17.40
2018,07,13,06,58,17.40
2018,07,13,06,59,17.40
2018,07,13,07,00,17.40
2018,07,13,07,01,17.40
2018,07,13,07,02,17.40
2018,07,13,07,03,17.40
2018,07,13,07,04,17.40
2018,07,13,07,05,17.40
2018,07,13,07,06,17.40
2018,07,13,07,07,17.40
2018,07,13,07,08,17.50
2018,07,13,07,09,17.50
2018,07,13,07,10,17.60
2018,07,13,07,11,17.60
2018,07,13,07,12,17.70
2018,07,13,07,13,17.70
2018,07,13,07,14,17.80
2018,07,13,07,15,17.80
2018,07,13,07,16,18.00
2018,07,13,07,17,18.10
2018,07,13,07,18,18.10
2018,07,13,07,19,18.20
2018,07,13,07,20,18.30
2018,07,13,07,21,18.40
2018,07,13,07,22,18.50
2018,07,13,07,23,18.60
2018,07,13,07,24,18.70
2018,07,13,07,25,18.80
2018,07,13,07,26,18.90
2018,07,13,07,27,19.00
2018,07,13,07,28,19.10
2018,07,13,07,29,19.10
2018,07,13,07,30,19.10
2018,07,13,07,31,19.10
2018,07,13,07,32,19.10
2018,07,13,07,33,19.00
2018,07,13,07,34,19.00
2018,07,13,07,35,19.10
2018,07,13,07,36,19.10
2018,07,13,07,37,19.10
2018,07,13,07,38,19.20
2018,07,13,07,39,19.30
2018,07,13,07,40,19.30
2018,07,13,07,41,19.30
2018,07,13,07,42,19.40
2018,07,13,07,43,19.40
2018,07,13,07,44,19.40
2018,07,13,07,45,19.50
2018,07,13,07,46,19.50
2018,07,13,07,47,19.60
2018,07,13,07,48,19.60
2018,07,13,07,49,19.70
2018,07,13,07,50,19.70
2018,07,13,07,51,19.70
2018,07,13,07,52,19.70
2018,07,13,07,53,19.70
2018,07,13,07,54,19.70
2018,07,13,07,55,19.80
2018,07,13,07,56,19.80
2018,07,13,07,57,19.90
2018,07,13,07,58,19.90
2018,07,13,07,59,20.00
2018,07,13,08,00,20.10
2018,07,13,08,01,20.20
2018,07,13,08,02,20.20
2018,07,13,08,03,20.30
2018,07,13,08,04,20.40
2018,07,13,08,05,20.40
2018,07,13,08,06,20.50
2018,07,13,08,07,20.60
2018,07,13,08,08,20.70
2018,07,13,08,09,20.70
2018,07,13,08,10,20.80
2018,07,13,08,11,20.80
2018,07,13,08,12,20.80
2018,07,13,08,13,20.90
2018,07,13,08,14,20.90
2018,07,13,08,15,20.80
2018,07,13,08,16,20.80
2018,07,13,08,17,20.70
2018,07,13,08,18,20.70
2018,07,13,08,19,20.60
2018,07,13,08,20,20.60
2018,07,13,08,21,20.60
2018,07,13,08,22,20.70
2018,07,13,08,23,20.70
2018,07,13,08,24,20.80
2018,07,13,08,25,20.90
2018,07,13,08,26,21.00
2018,07,13,08,27,21.00
2018,07,13,08,28,21.10
2018,07,13,08,29,21.10
2018,07,13,08,30,21.20
2018,07,13,08,31,21.20
2018,07,13,08,32,21.30
2018,07,13,08,33,21.30
2018,07,13,08,34,21.40
2018,07,13,08,35,21.40
2018,07,13,08,36,21.50
2018,07,13,08,37,21.50
2018,07,13,08,38,21.50
2018,07,13,08,39,21.60
2018,07,13,08,40,21.60
2018,07,13,08,41,21.60
2018,07,13,08,42,21.60
2018,07,13,08,43,21.60
2018,07,13,08,44,21.60
2018,07,13,08,45,21.60
2018,07,13,08,46,21.60
2018,07,13,08,47,21.60
2018,07,13,08,48,21.60
2018,07,13,08,49,21.60
2018,07,13,08,50,21.70
2018,07,13,08,51,21.70
2018,07,13,08,52,21.80
2018,07,13,08,53,21.80
2018,07,13,08,54,21.80
2018,07,13,08,55,21.80
2018,07,13,08,56,21.80
2018,07,13,08,57,21.90
2018,07,13,08,58,21.90
2018,07,13,08,59,22.00
2018,07,13,09,00,22.10
2018,07,13,09,01,22.10
2018,07,13,09,02,22.20
2018,07,13,09,03,22.20
2018,07,13,09,04,22.20
2018,07,13,09,05,22.20
2018,07,13,09,06,22.20
2018,07,13,09,07,22.20
2018,07,13,09,08,22.20
2018,07,13,09,09,22.20
2018,07,13,09,10,22.20
2018,07,13,09,11,22.20
2018,07,13,09,12,22.30
2018,07,13,09,13,22.30
2018,07,13,09,14,22.30
2018,07,13,09,15,22.30
2018,07,13,09,16,22.30
2018,07,13,09,17,22.20
2018,07,13,09,18,22.00
2018,07,13,09,19,22.00
2018,07,13,09,20,21.90
2018,07,13,09,21,21.90
2018,07,13,09,22,21.90
2018,07,13,09,23,21.90
2018,07,13,09,24,22.00
2018,07,13,09,25,22.10
2018,07,13,09,26,22.20
2018,07,13,09,27,22.30
2018,07,13,09,28,22.40
2018,07,13,09,29,22.50
2018,07,13,09,30,22.60
2018,07,13,09,31,22.70
2018,07,13,09,32,22.70
2018,07,13,09,33,22.80
2018,07,13,09,34,22.80
2018,07,13,09,35,22.80
2018,07,13,09,36,22.80
2018,07,13,09,37,22.80
2018,07,13,09,38,22.80
2018,07,13,09,39,22.80
2018,07,13,09,40,22.80
2018,07,13,09,41,22.80
2018,07,13,09,42,22.90
2018,07,13,09,43,22.90
2018,07,13,09,44,22.90
2018,07,13,09,45,22.90
2018,07,13,09,46,23.00
2018,07,13,09,47,23.00
2018,07,13,09,48,23.00
2018,07,13,09,49,23.00
2018,07,13,09,50,23.10
2018,07,13,09,51,23.10
2018,07,13,09,52,23.20
2018,07,13,09,53,23.30
2018,07,13,09,54,23.20
2018,07,13,09,55,23.20
2018,07,13,09,56,23.20
2018,07,13,09,57,23.10
2018,07,13,09,58,23.10
2018,07,13,09,59,23.10
2018,07,13,10,00,23.10
2018,07,13,10,01,23.10
2018,07,13,10,02,23.10
2018,07,13,10,03,23.20
2018,07,13,10,04,23.20
2018,07,13,10,05,23.30
2018,07,13,10,06,23.40
2018,07,13,10,07,23.40
2018,07,13,10,08,23.40
2018,07,13,10,09,23.40
2018,07,13,10,10,23.40
2018,07,13,10,11,23.30
2018,07,13,10,12,23.20
2018,07,13,10,13,23.20
2018,07,13,10,14,23.10
2018,07,13,10,15,23.20
2018,07,13,10,16,23.20
2018,07,13,10,17,23.30
2018,07,13,10,18,23.40
2018,07,13,10,19,23.50
2018,07,13,10,20,23.60
2018,07,13,10,21,23.70
2018,07,13,10,22,23.80
2018,07,13,10,23,23.90
2018,07,13,10,24,23.90
2018,07,13,10,25,24.00
2018,07,13,10,26,24.10
2018,07,13,10,27,24.20
2018,07,13,10,28,24.30
2018,07,13,10,29,24.30
2018,07,13,10,30,24.30
2018,07,13,10,31,24.30
2018,07,13,10,32,24.30
2018,07,13,10,33,24.40
2018,07,13,10,34,24.40
2018,07,13,10,35,24.50
2018,07,13,10,36,24.50
2018,07,13,10,37,24.50
2018,07,13,10,38,24.50
2018,07,13,10,39,24.60
2018,07,13,10,40,24.70
2018,07,13,10,41,24.70
2018,07,13,10,42,24.70
2018,07,13,10,43,24.50
2018,07,13,10,44,24.40
2018,07,13,10,45,24.40
2018,07,13,10,46,24.40
2018,07,13,10,47,24.30
2018,07,13,10,48,24.40
2018,07,13,10,49,24.40
2018,07,13,10,50,24.50
2018,07,13,10,51,24.60
2018,07,13,10,52,24.60
2018,07,13,10,53,24.60
2018,07,13,10,54,24.60
2018,07,13,10,55,24.60
2018,07,13,10,56,24.60
2018,07,13,10,57,24.70
2018,07,13,10,58,24.60
2018,07,13,10,59,24.60
2018,07,13,11,00,24.60
2018,07,13,11,01,24.60
2018,07,13,11,02,24.50
2018,07,13,11,03,24.50
2018,07,13,11,04,24.40
2018,07,13,11,05,24.40
2018,07,13,11,06,24.30
2018,07,13,11,07,24.30
2018,07,13,11,08,24.20
2018,07,13,11,09,24.20
2018,07,13,11,10,24.20
2018,07,13,11,11,24.20
2018,07,13,11,12,24.20
2018,07,13,11,13,24.20
2018,07,13,11,14,24.30
2018,07,13,11,15,24.40
2018,07,13,11,16,24.40
2018,07,13,11,17,24.60
2018,07,13,11,18,24.60
2018,07,13,11,19,24.70
2018,07,13,11,20,24.60
2018,07,13,11,21,24.60
2018,07,13,11,22,24.50
2018,07,13,11,23,24.40
2018,07,13,11,24,24.40
2018,07,13,11,25,24.30
2018,07,13,11,26,24.30
2018,07,13,11,27,24.30
2018,07,13,11,28,24.30
2018,07,13,11,29,24.30
2018,07,13,11,30,24.30
2018,07,13,11,31,24.40
2018,07,13,11,32,24.40
2018,07,13,11,33,24.50
2018,07,13,11,34,24.50
2018,07,13,11,35,24.60
2018,07,13,11,36,24.60
2018,07,13,11,37,24.60
2018,07,13,11,38,24.60
2018,07,13,11,39,24.60
2018,07,13,11,40,24.60
2018,07,13,11,41,24.60
2018,07,13,11,42,24.60
2018,07,13,11,43,24.50
2018,07,13,11,44,24.40
2018,07,13,11,45,24.40
2018,07,13,11,46,24.40
2018,07,13,11,47,24.40
2018,07,13,11,48,24.50
2018,07,13,11,49,24.60
2018,07,13,11,50,24.70
2018,07,13,11,51,24.70
2018,07,13,11,52,24.70
2018,07,13,11,53,24.70
2018,07,13,11,54,24.60
2018,07,13,11,55,24.50
2018,07,13,11,56,24.40
2018,07,13,11,57,24.30
2018,07,13,11,58,24.40
2018,07,13,11,59,24.60
2018,07,13,12,00,24.70
2018,07,13,12,01,24.70
2018,07,13,12,02,24.80
2018,07,13,12,03,24.80
2018,07,13,12,04,24.80
2018,07,13,12,05,24.80
2018,07,13,12,06,24.80
2018,07,13,12,07,24.90
2018,07,13,12,08,24.90
2018,07,13,12,09,25.00
2018,07,13,12,10,25.00
2018,07,13,12,11,25.00
2018,07,13,12,12,25.00
2018,07,13,12,13,25.00
2018,07,13,12,14,25.10
2018,07,13,12,15,25.10
2018,07,13,12,16,25.10
2018,07,13,12,17,25.00
2018,07,13,12,18,24.90
2018,07,13,12,19,24.80
2018,07,13,12,20,24.70
2018,07,13,12,21,24.60
2018,07,13,12,22,24.60
2018,07,13,12,23,24.70
2018,07,13,12,24,24.80
2018,07,13,12,25,24.80
2018,07,13,12,26,24.80
2018,07,13,12,27,24.90
2018,07,13,12,28,24.80
2018,07,13,12,29,24.80
2018,07,13,12,30,24.70
2018,07,13,12,31,24.60
2018,07,13,12,32,24.60
2018,07,13,12,33,24.70
2018,07,13,12,34,24.70
2018,07,13,12,35,24.80
2018,07,13,12,36,24.80
2018,07,13,12,37,24.80
2018,07,13,12,38,24.70
2018,07,13,12,39,24.80
2018,07,13,12,40,24.90
2018,07,13,12,41,25.00
2018,07,13,12,42,25.10
2018,07,13,12,43,25.10
2018,07,13,12,44,25.20
2018,07,13,12,45,25.20
2018,07,13,12,46,25.30
2018,07,13,12,47,25.30
2018,07,13,12,48,25.30
2018,07,13,12,49,25.20
2018,07,13,12,50,25.20
2018,07,13,12,51,25.20
2018,07,13,12,52,25.30
2018,07,13,12,53,25.30
2018,07,13,12,54,25.40
2018,07,13,12,55,25.50
2018,07,13,12,56,25.50
2018,07,13,12,57,25.60
2018,07,13,12,58,25.60
2018,07,13,12,59,25.70
2018,07,13,13,00,25.60
2018,07,13,13,01,25.70
2018,07,13,13,02,25.70
2018,07,13,13,03,25.70
2018,07,13,13,04,25.70
2018,07,13,13,05,25.60
2018,07,13,13,06,25.60
2018,07,13,13,07,25.60
2018,07,13,13,08,25.60
2018,07,13,13,09,25.70
2018,07,13,13,10,25.70
2018,07,13,13,11,25.80
2018,07,13,13,12,25.90
2018,07,13,13,13,25.90
2018,07,13,13,14,26.00
2018,07,13,13,15,26.10
2018,07,13,13,16,26.10
2018,07,13,13,17,26.10
2018,07,13,13,18,26.10
2018,07,13,13,19,26.10
2018,07,13,13,20,26.20
2018,07,13,13,21,26.20
2018,07,13,13,22,26.10
2018,07,13,13,23,26.10
2018,07,13,13,24,26.00
2018,07,13,13,25,25.90
2018,07,13,13,26,25.90
2018,07,13,13,27,25.90
2018,07,13,13,28,25.90
2018,07,13,13,29,25.80
2018,07,13,13,30,25.80
2018,07,13,13,31,25.80
2018,07,13,13,32,25.80
2018,07,13,13,33,25.90
2018,07,13,13,34,25.90
2018,07,13,13,35,25.80
2018,07,13,13,36,25.80
2018,07,13,13,37,25.80
2018,07,13,13,38,25.70
2018,07,13,13,39,25.70
2018,07,13,13,40,25.70
2018,07,13,13,41,25.70
2018,07,13,13,42,25.80
2018,07,13,13,43,25.90
2018,07,13,13,44,26.00
2018,07,13,13,45,26.10
2018,07,13,13,46,26.10
2018,07,13,13,47,26.20
2018,07,13,13,48,26.20
2018,07,13,13,49,26.10
2018,07,13,13,50,26.00
2018,07,13,13,51,25.90
2018,07,13,13,52,25.90
2018,07,13,13,53,25.80
2018,07,13,13,54,25.80
2018,07,13,13,55,25.80
2018,07,13,13,56,25.80
2018,07,13,13,57,25.70
2018,07,13,13,58,25.70
2018,07,13,13,59,25.70
2018,07,13,14,00,25.70
2018,07,13,14,01,25.80
2018,07,13,14,02,25.90
2018,07,13,14,03,25.80
2018,07,13,14,04,25.80
2018,07,13,14,05,25.90
2018,07,13,14,06,25.90
2018,07,13,14,07,26.00
2018,07,13,14,08,26.00
2018,07,13,14,09,26.10
2018,07,13,14,10,26.10
2018,07,13,14,11,26.00
2018,07,13,14,12,26.00
2018,07,13,14,13,26.00
2018,07,13,14,14,25.90
2018,07,13,14,15,25.90
2018,07,13,14,16,25.90
2018,07,13,14,17,25.90
2018,07,13,14,18,25.90
2018,07,13,14,19,25.90
2018,07,13,14,20,26.00
2018,07,13,14,21,26.10
2018,07,13,14,22,26.10
2018,07,13,14,23,26.10
2018,07,13,14,24,26.10
2018,07,13,14,25,26.20
2018,07,13,14,26,26.20
2018,07,13,14,27,26.20
2018,07,13,14,28,26.20
2018,07,13,14,29,26.30
2018,07,13,14,30,26.30
2018,07,13,14,31,26.40
2018,07,13,14,32,26.40
2018,07,13,14,33,26.30
2018,07,13,14,34,26.20
2018,07,13,14,35,26.10
2018,07,13,14,36,26.10
2018,07,13,14,37,26.10
2018,07,13,14,38,26.10
2018,07,13,14,39,26.20
2018,07,13,14,40,26.20
2018,07,13,14,41,26.20
2018,07,13,14,42,26.20
2018,07,13,14,43,26.20
2018,07,13,14,44,26.20
2018,07,13,14,45,26.20
2018,07,13,14,46,26.10
2018,07,13,14,47,26.10
2018,07,13,14,48,26.00
2018,07,13,14,49,26.00
2018,07,13,14,50,26.00
2018,07,13,14,51,25.90
2018,07,13,14,52,25.90
2018,07,13,14,53,25.90
2018,07,13,14,54,26.00
2018,07,13,14,55,25.90
2018,07,13,14,56,25.80
2018,07,13,14,57,25.70
2018,07,13,14,58,25.70
2018,07,13,14,59,25.70
2018,07,13,15,00,25.70
2018,07,13,15,01,25.80
2018,07,13,15,02,25.80
2018,07,13,15,03,25.90
2018,07,13,15,04,25.90
2018,07,13,15,05,25.90
2018,07,13,15,06,25.90
2018,07,13,15,07,25.90
2018,07,13,15,08,25.90
2018,07,13,15,09,25.80
2018,07,13,15,10,25.70
2018,07,13,15,11,25.70
2018,07,13,15,12,25.70
2018,07,13,15,13,25.70
2018,07,13,15,14,25.80
2018,07,13,15,15,25.80
2018,07,13,15,16,25.80
2018,07,13,15,17,25.80
2018,07,13,15,18,25.80
2018,07,13,15,19,25.80
2018,07,13,15,20,25.80
2018,07,13,15,21,25.80
2018,07,13,15,22,25.90
2018,07,13,15,23,25.90
2018,07,13,15,24,25.90
2018,07,13,15,25,25.90
2018,07,13,15,26,26.00
2018,07,13,15,27,26.00
2018,07,13,15,28,26.10
2018,07,13,15,29,26.10
2018,07,13,15,30,26.20
2018,07,13,15,31,26.20
2018,07,13,15,32,26.20
2018,07,13,15,33,26.10
2018,07,13,15,34,26.10
2018,07,13,15,35,26.10
2018,07,13,15,36,26.20
2018,07,13,15,37,26.10
2018,07,13,15,38,26.00
2018,07,13,15,39,25.90
2018,07,13,15,40,25.90
2018,07,13,15,41,25.90
2018,07,13,15,42,25.90
2018,07,13,15,43,25.90
2018,07,13,15,44,25.90
2018,07,13,15,45,26.00
2018,07,13,15,46,26.10
2018,07,13,15,47,26.20
2018,07,13,15,48,26.30
2018,07,13,15,49,26.30
2018,07,13,15,50,26.40
2018,07,13,15,51,26.40
2018,07,13,15,52,26.30
2018,07,13,15,53,26.20
2018,07,13,15,54,26.20
2018,07,13,15,55,26.10
2018,07,13,15,56,26.10
2018,07,13,15,57,26.00
2018,07,13,15,58,25.90
2018,07,13,15,59,25.90
2018,07,13,16,00,25.90
2018,07,13,16,01,26.00
2018,07,13,16,02,26.10
2018,07,13,16,03,26.30
2018,07,13,16,04,26.40
2018,07,13,16,05,26.50
2018,07,13,16,06,26.60
2018,07,13,16,07,26.60
2018,07,13,16,08,26.60
2018,07,13,16,09,26.60
2018,07,13,16,10,26.60
2018,07,13,16,11,26.60
2018,07,13,16,12,26.60
2018,07,13,16,13,26.60
2018,07,13,16,14,26.60
2018,07,13,16,15,26.60
2018,07,13,16,16,26.60
2018,07,13,16,17,26.60
2018,07,13,16,18,26.60
2018,07,13,16,19,26.60
2018,07,13,16,20,26.60
2018,07,13,16,21,26.60
2018,07,13,16,22,26.60
2018,07,13,16,23,26.70
2018,07,13,16,24,26.70
2018,07,13,16,25,26.80
2018,07,13,16,26,26.90
2018,07,13,16,27,26.90
2018,07,13,16,28,27.00
2018,07,13,16,29,27.00
2018,07,13,16,30,27.10
2018,07,13,16,31,27.20
2018,07,13,16,32,27.30
2018,07,13,16,33,27.20
2018,07,13,16,34,27.30
2018,07,13,16,35,27.30
2018,07,13,16,36,27.30
2018,07,13,16,37,27.30
2018,07,13,16,38,27.30
2018,07,13,16,39,27.20
2018,07,13,16,40,27.10
2018,07,13,16,41,27.00
2018,07,13,16,42,26.90
2018,07,13,16,43,26.80
2018,07,13,16,44,26.80
2018,07,13,16,45,26.80
2018,07,13,16,46,26.70
2018,07,13,16,47,26.50
2018,07,13,16,48,26.40
2018,07,13,16,49,26.30
2018,07,13,16,50,26.30
2018,07,13,16,51,26.30
2018,07,13,16,52,26.20
2018,07,13,16,53,26.10
2018,07,13,16,54,26.00
2018,07,13,16,55,26.00
2018,07,13,16,56,25.90
2018,07,13,16,57,26.00
2018,07,13,16,58,26.00
2018,07,13,16,59,26.00
2018,07,13,17,00,26.00
2018,07,13,17,01,26.10
2018,07,13,17,02,26.10
2018,07,13,17,03,26.10
2018,07,13,17,04,26.00
2018,07,13,17,05,26.10
2018,07,13,17,06,26.20
2018,07,13,17,07,26.30
2018,07,13,17,08,26.50
2018,07,13,17,09,26.50
2018,07,13,17,10,26.60
2018,07,13,17,11,26.70
2018,07,13,17,12,26.80
2018,07,13,17,13,27.00
2018,07,13,17,14,27.10
2018,07,13,17,15,27.20
2018,07,13,17,16,27.30
2018,07,13,17,17,27.30
2018,07,13,17,18,27.30
2018,07,13,17,19,27.30